Terug naar catalogus

DMSP 5D-2 F13 DEB

ActiefSSO
NORAD 40497·DEBRIS·🇺🇸 United States

Gelanceerd Mar 24, 1995 vanaf Vandenberg Space Force Base

Loading…

Volgende Passages (komende 24 uur)

TLE

VerouderendSource: Space-Track

Epoch: Sep 8, 2026, 08:28 UTC

1 40497U 95015CL  26251.35289773  .00003571  00000-0  10792-2 0  9991
2 40497  98.6750 294.6682 0005866 113.7772 246.4033 14.43021025597398

Volg DMSP 5D-2 F13 DEB in realtime met AllMySat

Download on the App Store